Location: Sungai Liu
(2.3667°N, 113.8667°E)
Time: 14:23:12
(UTC+00:00)

MOS 1-B Rocket - Pass Details

Date: 20 May 2022
Orbit: 891 x 1604 km, 99.0° (Epoch: 06 July)

Event Time Altitude Azimuth Distance (km) Brightness Sun altitude
Rises 20:11:05 0° 169° (SSE) 4,037 7.1 -29.3°
Reaches altitude 10° 20:13:50 10° 169° (S) 2,976 6.4 -28.7°
Maximum altitude 20:20:27 83° 257° (WSW) 1,006 3.9 -27.2°
Drops below altitude 10° 20:26:15 10° 345° (NNW) 2,619 6.3 -25.9°
Sets 20:28:32 0° 346° (NNW) 3,523 7.0 -25.4°
